Simultaneous Nadir Overpasses (SNOs) Predictions

Prediction of SNOs between METOP-A and TERRA Satellite Orbit:

Table of predicted SNOs for the next 14.0 days since TLE Epoch: 11/16/2019
Index Date (METOP-A) Time (METOP-A) Lat,Lon (METOP-A) SZA (METOP-A ) Date (TERRA) Time (TERRA) Lat,Lon (TERRA) SZA (TERRA ) Distance(km) Time Diff (sec)
1 11/17/2019 13:14:38 -81.44,-148.68 76.23 11/17/2019 13:15:51 -81.44,-148.83 76.21 2.56 73
2 11/17/2019 14:05:19 81.44, 18.70 103.79 11/17/2019 14:05:17 81.45, 18.89 103.81 3.29 2
3 11/17/2019 14:55:54 -81.40,-171.80 75.98 11/17/2019 14:54:40 -81.51,-171.95 75.97 12.63 74
4 11/20/2019 08:49:02 -81.44, -82.46 75.61 11/20/2019 08:50:06 -81.44, -82.57 75.60 2.06 64
5 11/20/2019 09:39:42 81.44, 85.28 104.45 11/20/2019 09:39:32 81.44, 85.12 104.42 2.55 10
6 11/23/2019 04:23:25 -81.44, -15.87 75.00 11/23/2019 04:24:20 -81.44, -15.97 74.98 1.75 55
7 11/23/2019 05:14:05 81.43, 151.84 105.05 11/23/2019 05:13:46 81.44, 151.70 105.03 2.56 19
8 11/25/2019 23:57:47 -81.44, 50.71 74.44 11/25/2019 23:58:33 -81.45, 50.58 74.43 2.48 46
9 11/26/2019 00:48:28 81.44,-142.01 105.56 11/26/2019 00:48:00 81.43,-142.16 105.53 2.63 28
10 11/28/2019 19:32:11 -81.44, 116.87 73.98 11/28/2019 19:32:48 -81.43, 116.69 73.99 3.22 37




NCC Satellite Simultaneous Nadir Overpasses (SNOs) Prediction Service
